Regional Weather Roundup
Issued by NWS Goodland, KS

Home | Current Version | Previous Version | Text Only | Print | Product List | Glossary Off
Versions: 1 2 3 4 5 6 7 8 9 10 11 12 13 14 15 16 17 18 19 20 21 22 23 24 25 26 27 28 29 30 31 32 33 34 35 36 37 38 39 40 41 42 43 44 45 46 47 48 49 50

000
ASUS43 KGLD 230059
RWRGLD

GOODLAND FORECAST AREA HOURLY WEATHER ROUNDUP
NATIONAL WEATHER SERVICE GOODLAND KS
700 PM MDT WED MAR 22 2017

...OFFICIAL OBSERVATIONS...

CITY           SKY/WX    TMP DP  RH WIND       PRES   REMARKS
GOODLAND KS    CLOUDY    54  39  57 SE18G24   29.92S
HILL CITY KS   MOCLDY    51  35  54 SE9       30.03F
IMPERIAL NEB   CLOUDY    52  34  50 SE18G26   29.94S
MCCOOK NEB     CLOUDY    49  32  52 SE15G24   30.00F
AKRON CO       CLOUDY    61  36  39 SE16      29.88R
BURLINGTON CO  CLOUDY    57  38  48 SE23      29.90F
LIMON CO       CLOUDY    59  39  47 SE14      29.90F
$$

...UNOFFICIAL OBSERVATIONS...

CITY           SKY/WX    TMP DP  RH WIND       PRES   REMARKS
LENORA KS        N/A     49  32  52 E7          N/A
NORTON KS      MOCLDY    48  27  43 SE8       30.03S
SHARON SPRINGS   N/A     59  41  51 SE20G29     N/A
TRENTON NEB      N/A     49  32  52 S12         N/A
YUMA CO        FAIR      57  36  44 SE17      29.88F
$$




USA.gov is the U.S. government's official web portal to all federal, state and local government web resources and services.